Regional Weather Roundup
Issued by NWS

Home | Current Version | Previous Version | Text Only | Print | Product List | Glossary Off
Versions: 1 2 3 4 5 6 7 8 9 10 11 12 13 14 15 16 17 18 19 20 21 22 23 24 25 26 27 28 29 30 31 32 33 34 35 36 37 38 39 40 41 42 43 44 45 46 47 48 49 50

891
ASUS43 KFSD 191402
RWRSD

WEATHER ROUNDUP FOR SOUTH DAKOTA
NATIONAL WEATHER SERVICE SIOUX FALLS SD
800 AM CST FRI JAN 19 2018

NOTE: "FAIR" INDICATES FEW OR NO CLOUDS BELOW 12,000 FEET WITH NO
SIGNIFICANT WEATHER AND/OR OBSTRUCTIONS TO VISIBILITY.


SDZ001>005-009-010-012>017-191500-
NORTHWEST AND NORTH CENTRAL SOUTH DAKOTA

CITY           SKY/WX    TMP DP  RH WIND       PRES   REMARKS
BUFFALO          N/A     33  26  75 NW10      29.55R WCI  25
FAITH            N/A     29  25  85 W10       29.58R WCI  20
MOBRIDGE       MOCLDY    25  22  88 N6        29.51F WCI  18
$$

SDZ012>016-024>037-041>051-057-063-072>074-191500-
SOUTHWEST AND SOUTH CENTRAL SOUTH DAKOTA

CITY           SKY/WX    TMP DP  RH WIND       PRES   REMARKS
RAPID CTY ARPT MOCLDY    50  24  36 W12       29.55R
PIERRE         CLOUDY    29  26  89 N3        29.53R
CUSTER         PTCLDY    44  17  33 W18G29    29.64F
ELLSWORTH AFB  PTCLDY    43  26  50 N21G29    29.58
PHILIP         CLOUDY    30  26  85 NW6       29.54F WCI  24
PINE RIDGE     CLOUDY    44  27  51 N3        29.62F
SPEARFISH        N/A     50  23  34 W13       29.59R
WINNER         FAIR      46  31  55 SW12      29.54F
$$

SDZ004>011-016>023-039-040-191500-
NORTHEAST SOUTH DAKOTA

CITY           SKY/WX    TMP DP  RH WIND       PRES   REMARKS
ABERDEEN       MOCLDY    23  22  96 CALM      29.53S
WATERTOWN      CLOUDY    28  25  88 SE5       29.52S WCI  23
BROOKINGS      CLOUDY    28  25  88 SW5       29.56S WCI  23
SISSETON         N/A     32  25  75 N5        29.49F WCI  27
$$

SDZ017-020-022-023-036>040-048>070-191500-
SOUTHEAST SOUTH DAKOTA

CITY           SKY/WX    TMP DP  RH WIND       PRES   REMARKS
SIOUX FALLS    CLOUDY    33  28  81 S7        29.57F WCI  27
HURON          CLOUDY    26  25  96 SE6       29.52F WCI  19
CHAMBERLAIN    CLOUDY    38  32  79 SW10      29.53F
MITCHELL       CLOUDY    33  29  85 SW7       29.55F WCI  27
YANKTON        CLOUDY    31  27  85 S5        29.59F WCI  26
$$

ABBREVIATIONS USED IN REMARKS
   TC - TEMPERATURE IN CELSIUS
  WCI - WIND CHILL INDEX
   HX - HEAT INDEX
  VSB - VISIBILITY





USA.gov is the U.S. government's official web portal to all federal, state and local government web resources and services.